Weather History for La Grande, OR

Change the Weather History Date:

Saturday, September 28, 2013

  Actual Average Record
Temperature  
Mean Temperature 56 °F -  
Max Temperature 64 °F 70 °F 91 °F (1967)
Min Temperature 48 °F 36 °F 23 °F (1999)
Degree Days  
Heating Degree Days 9    
Growing Degree Days 6 (Base 50)    
Moisture  
Dew Point 37 °F    
Average Humidity 53    
Maximum Humidity 66    
Minimum Humidity 34    
Precipitation  
Precipitation 0.05 in - - ()
Sea Level Pressure  
Sea Level Pressure 29.85 in    
Wind  
Wind Speed 14 mph (South)    
Max Wind Speed 23 mph    
Max Gust Speed 31 mph    
Visibility 10 miles    
Events      
Averages and records for this station are not official NWS values.
T = Trace of Precipitation, MM = Missing Value Source: NWS Daily Summary

Daily Weather History Graph

Daily Weather History Graph

Search for Another Location

Airport:

Trip Planner

Search our weather history database for the weather conditions in past years. The results will help you decide how hot, cold, wet, or windy it might be!

Date:

Astronomy

Sep. 28, 2013 Rise Set
Actual Time 6:46 AM PDT 6:37 PM PDT
Civil Twilight 6:17 AM PDT 7:06 PM PDT
Nautical Twilight 5:43 AM PDT 7:41 PM PDT
Astronomical Twilight 5:08 AM PDT 8:15 PM PDT
Moon 12:24 AM PDT (9/28) 3:12 PM PDT (9/28)
Length of Visible Light 12h 49m
Length of Day
11h 50m
Waning Crescent, 35% of the Moon is Illuminated
Sep 28
Waning Crescent
Oct 4
New
Oct 11
First Quarter
Oct 18
Full
Oct 26
Last Quarter

Hourly Weather History & Observations

Time (PDT) Temp. Dew Point Humidity Pressure Visibility Wind Dir Wind Speed Gust Speed Precip Events Conditions
12:15 AM 48.2 °F 37.4 °F 66% 30.00 in 10.0 mi South 5.8 mph - N/A   Overcast
12:35 AM 48.2 °F 37.4 °F 66% 30.01 in 10.0 mi South 11.5 mph - N/A   Overcast
12:55 AM 48.2 °F 37.4 °F 66% 30.00 in 10.0 mi South 16.1 mph - N/A   Overcast
1:15 AM 48.2 °F 37.4 °F 66% 30.00 in 10.0 mi South 11.5 mph - N/A   Overcast
1:35 AM 48.2 °F 37.4 °F 66% 30.00 in 10.0 mi South 12.7 mph 18.4 mph N/A   Overcast
1:55 AM 48.2 °F 37.4 °F 66% 29.99 in 10.0 mi South 15.0 mph - N/A   Overcast
2:15 AM 48.2 °F 37.4 °F 66% 29.99 in 10.0 mi SSW 17.3 mph - 0.01 in   Overcast
2:35 AM 48.2 °F 37.4 °F 66% 29.99 in 10.0 mi South 13.8 mph - 0.01 in   Overcast
2:55 AM 48.2 °F 37.4 °F 66% 29.98 in 10.0 mi South 13.8 mph 20.7 mph 0.01 in   Overcast
3:15 AM 48.2 °F 35.6 °F 62% 29.97 in 10.0 mi South 13.8 mph - N/A   Overcast
3:35 AM 48.2 °F 35.6 °F 62% 29.98 in 10.0 mi SSW 9.2 mph 16.1 mph N/A   Overcast
3:55 AM 48.2 °F 35.6 °F 62% 29.97 in 10.0 mi SSE 6.9 mph 18.4 mph N/A   Overcast
4:15 AM 48.2 °F 35.6 °F 62% 29.96 in 10.0 mi South 12.7 mph 18.4 mph N/A   Overcast
4:35 AM 48.2 °F 35.6 °F 62% 29.96 in 10.0 mi SSE 10.4 mph - 0.01 in   Overcast
4:55 AM 48.2 °F 35.6 °F 62% 29.95 in 10.0 mi South 16.1 mph 21.9 mph 0.01 in   Overcast
5:15 AM 48.2 °F 35.6 °F 62% 29.95 in 10.0 mi South 11.5 mph - N/A   Overcast
5:35 AM 48.2 °F 35.6 °F 62% 29.95 in 10.0 mi South 17.3 mph 20.7 mph N/A   Overcast
5:55 AM 48.2 °F 35.6 °F 62% 29.95 in 10.0 mi SSE 12.7 mph 19.6 mph N/A   Mostly Cloudy
6:15 AM 48.2 °F 35.6 °F 62% 29.94 in 10.0 mi ESE 8.1 mph - 0.01 in   Overcast
6:35 AM 48.2 °F 35.6 °F 62% 29.94 in 10.0 mi ESE 12.7 mph 17.3 mph 0.01 in   Overcast
6:55 AM 48.2 °F 35.6 °F 62% 29.94 in 10.0 mi SE 10.4 mph 18.4 mph 0.02 in   Mostly Cloudy
7:15 AM 48.2 °F 35.6 °F 62% 29.93 in 10.0 mi SE 15.0 mph 18.4 mph 0.01 in   Overcast
7:35 AM 48.2 °F 35.6 °F 62% 29.93 in 10.0 mi SE 13.8 mph 23.0 mph 0.01 in   Overcast
7:55 AM 48.2 °F 35.6 °F 62% 29.93 in 10.0 mi SE 15.0 mph 21.9 mph 0.01 in   Overcast
8:15 AM 50.0 °F 35.6 °F 58% 29.93 in 10.0 mi SSE 10.4 mph - N/A   Overcast
8:35 AM 50.0 °F 37.4 °F 62% 29.93 in 10.0 mi SSE 16.1 mph 20.7 mph N/A   Overcast
8:55 AM 51.8 °F 37.4 °F 58% 29.93 in 10.0 mi SSE 10.4 mph 16.1 mph N/A   Overcast
9:15 AM 51.8 °F 37.4 °F 58% 29.94 in 10.0 mi South 16.1 mph 28.8 mph N/A   Overcast
9:35 AM 51.8 °F 37.4 °F 58% 29.93 in 10.0 mi SSE 16.1 mph 23.0 mph N/A   Overcast
9:55 AM 51.8 °F 37.4 °F 58% 29.93 in 10.0 mi South 8.1 mph - N/A   Overcast
10:15 AM 51.8 °F 37.4 °F 58% 29.91 in 10.0 mi SSE 9.2 mph 20.7 mph N/A   Overcast
10:35 AM 53.6 °F 37.4 °F 54% 29.92 in 10.0 mi South 12.7 mph - N/A   Overcast
10:55 AM 53.6 °F 37.4 °F 54% 29.92 in 10.0 mi South 13.8 mph 18.4 mph N/A   Overcast
11:15 AM 53.6 °F 37.4 °F 54% 29.91 in 10.0 mi SSE 15.0 mph - N/A   Overcast
11:35 AM 53.6 °F 37.4 °F 54% 29.90 in 10.0 mi South 16.1 mph 24.2 mph N/A   Overcast
11:55 AM 55.4 °F 37.4 °F 51% 29.89 in 10.0 mi South 19.6 mph 25.3 mph N/A   Overcast
12:15 PM 55.4 °F 37.4 °F 51% 29.89 in 10.0 mi South 20.7 mph 26.5 mph N/A   Mostly Cloudy
12:35 PM 55.4 °F 37.4 °F 51% 29.89 in 10.0 mi South 23.0 mph 27.6 mph N/A   Mostly Cloudy
12:55 PM 57.2 °F 37.4 °F 48% 29.87 in 10.0 mi South 19.6 mph 27.6 mph N/A   Overcast
1:15 PM 57.2 °F 39.2 °F 51% 29.85 in 10.0 mi South 20.7 mph 26.5 mph N/A   Scattered Clouds
1:35 PM 59.0 °F 37.4 °F 45% 29.85 in 10.0 mi South 19.6 mph 28.8 mph N/A   Clear
1:55 PM 59.0 °F 37.4 °F 45% 29.84 in 10.0 mi South 16.1 mph 21.9 mph N/A   Mostly Cloudy
2:15 PM 59.0 °F 37.4 °F 45% 29.83 in 10.0 mi South 15.0 mph 23.0 mph N/A   Overcast
2:35 PM 59.0 °F 37.4 °F 45% 29.82 in 10.0 mi South 19.6 mph 26.5 mph N/A   Mostly Cloudy
2:55 PM 59.0 °F 37.4 °F 45% 29.82 in 10.0 mi South 21.9 mph 29.9 mph N/A   Mostly Cloudy
3:15 PM 59.0 °F 37.4 °F 45% 29.81 in 10.0 mi SSW 17.3 mph 26.5 mph N/A   Overcast
3:35 PM 59.0 °F 37.4 °F 45% 29.81 in 10.0 mi South 20.7 mph 31.1 mph N/A   Overcast
3:55 PM 57.2 °F 37.4 °F 48% 29.81 in 10.0 mi SSW 17.3 mph 27.6 mph N/A   Overcast
4:15 PM 57.2 °F 37.4 °F 48% 29.81 in 10.0 mi South 17.3 mph 24.2 mph N/A   Overcast
4:35 PM 57.2 °F 37.4 °F 48% 29.80 in 10.0 mi South 17.3 mph 23.0 mph N/A   Overcast
4:55 PM 57.2 °F 37.4 °F 48% 29.79 in 10.0 mi South 15.0 mph 26.5 mph N/A   Mostly Cloudy
5:15 PM 57.2 °F 37.4 °F 48% 29.77 in 10.0 mi South 16.1 mph 19.6 mph N/A   Partly Cloudy
5:35 PM 59.0 °F 37.4 °F 45% 29.77 in 10.0 mi South 16.1 mph 24.2 mph N/A   Clear
5:55 PM 59.0 °F 37.4 °F 45% 29.75 in 10.0 mi South 8.1 mph 21.9 mph N/A   Scattered Clouds
6:15 PM 59.0 °F 37.4 °F 45% 29.74 in 10.0 mi South 16.1 mph 23.0 mph N/A   Mostly Cloudy
6:35 PM 60.8 °F 37.4 °F 42% 29.73 in 10.0 mi SSW 16.1 mph 23.0 mph N/A   Mostly Cloudy
6:55 PM 60.8 °F 37.4 °F 42% 29.71 in 10.0 mi South 20.7 mph 28.8 mph N/A   Partly Cloudy
7:15 PM 60.8 °F 37.4 °F 42% 29.70 in 10.0 mi South 21.9 mph 29.9 mph N/A   Clear
7:35 PM 60.8 °F 37.4 °F 42% 29.69 in 10.0 mi SSW 19.6 mph 25.3 mph N/A   Clear
7:55 PM 60.8 °F 39.2 °F 45% 29.69 in 10.0 mi SSW 18.4 mph 29.9 mph N/A   Clear
8:15 PM 60.8 °F 39.2 °F 45% 29.69 in 10.0 mi SSW 19.6 mph - N/A   Clear
8:35 PM 60.8 °F 39.2 °F 45% 29.68 in 10.0 mi SSW 16.1 mph 20.7 mph N/A   Clear
8:55 PM 60.8 °F 39.2 °F 45% 29.65 in 10.0 mi SSW 19.6 mph 23.0 mph N/A   Clear
9:15 PM 60.8 °F 37.4 °F 42% 29.65 in 10.0 mi SSW 18.4 mph - N/A   Clear
9:35 PM 60.8 °F 39.2 °F 45% 29.64 in 10.0 mi South 16.1 mph - N/A   Clear
9:55 PM 62.6 °F 39.2 °F 42% 29.64 in 10.0 mi South 21.9 mph 26.5 mph N/A   Clear
10:15 PM 62.6 °F 39.2 °F 42% 29.63 in 10.0 mi South 17.3 mph 27.6 mph N/A   Partly Cloudy
10:35 PM 62.6 °F 39.2 °F 42% 29.62 in 10.0 mi South 12.7 mph - N/A   Scattered Clouds
10:55 PM 62.6 °F 37.4 °F 39% 29.62 in 10.0 mi South 11.5 mph - N/A   Mostly Cloudy
11:15 PM 64.4 °F 37.4 °F 37% 29.61 in 10.0 mi South 11.5 mph - N/A   Overcast
11:35 PM 64.4 °F 35.6 °F 34% 29.60 in 10.0 mi South 11.5 mph 20.7 mph N/A   Overcast
11:55 PM 64.4 °F 35.6 °F 34% 29.60 in 10.0 mi South 15.0 mph 23.0 mph N/A   Overcast